Regional Weather Roundup
Issued by NWS

Home | Current Version | Previous Version | Graphics & Text | Print | Product List | Glossary On
Versions: 1 2 3 4 5 6 7 8 9 10 11 12 13 14 15 16 17 18 19 20 21 22 23 24 25 26 27 28 29 30 31 32 33 34 35 36 37 38 39 40 41 42 43 44 45 46 47 48 49 50
000
ASUS45 KSLC 041510
RWRUT

UTAH REGIONAL WEATHER ROUNDUP
NATIONAL WEATHER SERVICE SALT LAKE CITY UT
900 AM MDT SAT JUL 04 2015

UTZ001>011-023>025-041600-

NORTHERN UTAH

CITY           SKY/WX    TMP DP  RH WIND       PRES   REMARKS
BRIGHAM CITY   MOSUNNY   80  52  38 CALM      29.96R
HILL AFB       MOSUNNY   77  49  36 E16       29.99R
LOGAN          SUNNY     77  52  41 CALM      29.98R
OGDEN          MOSUNNY   81  50  33 S6        29.96R
PROVO AIRPORT  NOT AVBL
SALT LAKE CITY PTSUNNY   84  51  31 SE6       29.94R
VERNAL         MOSUNNY   78  43  28 CALM      30.08S
WENDOVER       MOSUNNY   88  45  22 E6        29.95S
HEBER CITY     CLOUDY    68  52  56 NW9       30.10S
WEST JORDAN    SUNNY     82  48  30 SE6       29.99R

$$

UTZ012>022-026-027-041600-

SOUTHERN/CENTRAL UTAH

CITY           SKY/WX    TMP DP  RH WIND       PRES   REMARKS
BLANDING       MOSUNNY   72  54  53 CALM      30.23S
BRYCE CANYON   PTSUNNY   68  51  54 CALM      30.27S
CEDAR CITY     CLOUDY    77  49  37 CALM      30.11R
DELTA          PTSUNNY   83  45  26 S14       30.01R
HANKSVILLE     MOSUNNY   82  52  34 CALM      30.04S
MILFORD        CLOUDY    82  50  32 S17       30.03R
MOAB/CYNLANDS  SUNNY     81  52  36 SE7       30.03S
PRICE          MOSUNNY   78  51  38 SE6       30.14S
ST GEORGE      CLOUDY    84  55  37 CALM      29.93R
KANAB          PTSUNNY   75  59  57 CALM      30.14R

$$

REGIONAL REPORTS     COLORADO/ARIZONA

CITY           SKY/WX    TMP DP  RH WIND       PRES   REMARKS
CRAIG, CO      PTSUNNY   74  49  41 NE5       30.16S
GRAND JUNCTION MOSUNNY   79  50  36 S18       30.09S
RIFLE          MOSUNNY   71  52  50 CALM      30.16S
MONTROSE       CLOUDY    72  53  51 S13       30.20S
CORTEZ         SUNNY     73  50  44 VRB3      30.18F
PAGE, AZ       PTSUNNY   79  56  45 CALM      30.04R
GRAND CANYON   CLOUDY    65  56  72 CALM      30.22S
KINGMAN        CLOUDY    86  52  30 SW8       29.98S
FLAGSTAFF      CLOUDY    61  58  90 E6        30.27R

$$

REGIONAL REPORTS    NEVADA/IDAHO/WYOMING

CITY           SKY/WX    TMP DP  RH WIND       PRES   REMARKS
LAS VEGAS, NV  CLOUDY    94  40  15 W6        29.83R HX  90
ELY            CLOUDY    65  51  60 S9        30.15R
ELKO           MOSUNNY   72  51  47 CALM      30.05S
POCATELLO, ID  SUNNY     75  54  47 VRB3      29.99R
BURLEY         MOSUNNY   76  54  46 CALM      29.95R
EVANSTON, WY   PTSUNNY   65  46  50 S3        30.19S
ROCK SPRINGS   SUNNY     75  45  34 SW9       30.15R
KEMMERER       MOSUNNY   73  45  35 CALM      30.20S

$$


USA.gov is the U.S. government's official web portal to all federal, state and local government web resources and services.